Location: ???????
(55.3754°N, 39.3545°E)
Time: 07:47:17
(UTC+00:00)

Cosmos 2056 Rocket - Pass Details

Date: 14 April 2026
Orbit: 738 x 796 km, 74.0° (Epoch: 12 May)

Event Time Altitude Azimuth Distance (km) Brightness Sun altitude
Exits shadow 21:36:58 45° 115° (ESE) 1,079 4.0 -24.9°
Maximum altitude 21:37:12 45° 107° (ESE) 1,075 4.1 -24.9°
Drops below altitude 10° 21:42:20 10° 36° (NE) 2,378 6.8 -24.8°
Sets 21:44:49 0° 31° (NNE) 3,313 7.8 -24.8°
